Location: Newark
(45.8378°N, 5.5389°E)
Time: 05:06:49
(UTC+00:00)

YUBILEINY - Pass Details

Date: 21 December 2019
Orbit: 1478 x 1509 km, 82.5° (Epoch: 20 January)

Event Time Altitude Azimuth Distance (km) Brightness Sun altitude
Rises 19:20:39 0° 172° (S) 4,603 ? -34.6°
Enters shadow 19:23:20 - 170° (S) 3,696 ? -35.0°
Exits shadow 19:42:19 - 13° (NNE) 4,214 ? -38.3°
Sets 19:43:29 0° 12° (NNE) 4,610 ? -38.5°
